Location: Góry Miechowskie
(50.3599°N, 20.1803°E)
Time: 22:15:23
(UTC+00:00)

Tiros 1 despin weight - Pass Details

Date: 15 September 2024
Orbit: 572 x 614 km, 48.2° (Epoch: 12 October)

Event Time Altitude Azimuth Distance (km) Brightness Sun altitude
Rises 07:12:21 0° 280° (W) 2,889 ? 26.3°
Reaches altitude 10° 07:14:54 10° 269° (W) 1,980 ? 26.6°
Maximum altitude 07:18:46 28° 210° (SSW) 1,160 ? 27.2°
Drops below altitude 10° 07:22:37 10° 152° (SSE) 1,960 ? 27.7°
Sets 07:25:08 0° 140° (SE) 2,855 ? 28.0°
